Regional Weather Roundup
Issued by NWS Cleveland, OH

Home | Current Version | Previous Version | Graphics & Text | Print | Product List | Glossary On
Versions: 1 2 3 4 5 6 7 8 9 10 11 12 13 14 15 16 17 18 19 20 21 22 23 24 25 26 27 28 29 30 31 32 33 34 35 36 37 38 39 40 41 42 43 44 45 46 47 48 49 50
000
ASUS41 KCLE 232210
RWRCLE
OHIO REGIONAL WEATHER ROUNDUP
NATIONAL WEATHER SERVICE CLEVELAND, OH
600 PM EDT TUE SEP 23 2014

NOTE: "FAIR" INDICATES FEW OR NO CLOUDS BELOW 12,000 FEET WITH NO
SIGNIFICANT WEATHER AND/OR OBSTRUCTIONS TO VISIBILITY.

OHZ001>008-015>018-024>027-034-035-043-044-232300-
   NORTHWEST OHIO

CITY           SKY/WX    TMP DP  RH WIND       PRES   REMARKS
DEFIANCE       SUNNY    N/A N/A N/A NE3       30.31S
FINDLAY        SUNNY     72  45  37 CALM      30.30S
TOLEDO EXPRESS SUNNY     70  46  42 CALM      30.31S
TOLEDO EXEC    SUNNY     69  50  50 NE9       30.32R
LIMA           SUNNY     71  47  42 VRB6      30.31S
$$

OHZ009>014-019>023-028>033-038-089-232300-
   NORTHEAST OHIO

CITY           SKY/WX    TMP DP  RH WIND       PRES   REMARKS
CLE-HOPKINS    SUNNY     64  51  62 N9        30.35S
CLE-LAKEFRONT  SUNNY     65  52  62 N8        30.34S
CUY CO. ARPT   SUNNY     66  54  63 NE10      30.35S
LORAIN-ELYRIA  SUNNY     71  48  43 E5        30.34R
ASHTABULA      SUNNY     64  52  64 N7        30.37R
AKRON-CANTON   SUNNY     69  40  34 CALM      30.34S
WOOSTER        SUNNY     68  44  42 CALM      30.34S
MANSFIELD      SUNNY     69  46  43 NE7       30.33S
YOUNGSTOWN     SUNNY     68  45  43 CALM      30.35R
$$

OHZ042-051>053-060>062-070>072-077>081-232300-
  SOUTHWEST OHIO

CITY           SKY/WX    TMP DP  RH WIND       PRES   REMARKS
CINC-COVINGTON SUNNY     73  43  33 E7        30.28S
CINC-LUNKEN    SUNNY     73  44  35 NE5       30.28S
HAMILTON       SUNNY     72  46  39 E6        30.29F
DAYTON         SUNNY     73  43  33 NE5       30.30F
WRIGHT-PAT AFB SUNNY     73  42  33 VRB3      30.29F
DAYTON GENERAL SUNNY     70  45  40 NE3       30.29F
WILMINGTON     SUNNY     70  40  33 NE7       30.29F
$$

OHZ036-037-039>041-045>050-054>059-063>069-073>076-082>088-232300-
  CENTRAL AND SOUTHEAST OHIO

CITY           SKY/WX    TMP DP  RH WIND       PRES   REMARKS
COLUMBUS       SUNNY     73  40  30 E5        30.30F
OSU AIRPORT    SUNNY     70  43  37 NE6       30.30F
BOLTON FIELD   SUNNY     70  45  40 CALM      30.30F
RICKENBACK AFB SUNNY     70  41  35 E3        30.30S
NEWARK         SUNNY     70  41  34 N6        30.31S
MARION         SUNNY     70  42  36 CALM      30.32S
LANCASTER      SUNNY     72  41  32 NE7       30.31S
ZANESVILLE     SUNNY     70  41  34 N3        30.31S
NEW PHILLY     SUNNY     69  45  41 CALM      30.33S
$$


USA.gov is the U.S. government's official web portal to all federal, state and local government web resources and services.